Torna al catalogo

STARLINK-6197

AttivoComunicazioniVLEO
NORAD 56767·PAYLOAD·🇺🇸 United States

Lanciato May 31, 2023 da Vandenberg Space Force Base

Loading…

Prossimi Passaggi (prossime 24 ore)

TLE

AggiornatoSource: CelesTrak SupGP

Epoca: Sep 15, 2026, 02:58 UTC

1 56767C 23078A   26258.12409722  .00023590  00000+0  95800-3 0  2582
2 56767  69.9874 215.0806 0006904 233.4057 359.2980 15.24433043    17

Traccia STARLINK-6197 in tempo reale con AllMySat

Download on the App Store